| time (UTC) | temp F | wind direction | speed knots | gust knots | rain 1hr in | rain 24hr in | rain mn in | humidity % | barometer mb |
| 20260506171030 | 35 | 318 | 0.9 | 3.5 | 0.01 | 0.16 | 0.03 | 92 | 1027.8 |
| 20260506170542 | 35 | 20 | 0.0 | 3.5 | 0.01 | 0.16 | 0.03 | 92 | 1027.7 |
| 20260506170049 | 35 | 277 | 0.9 | 2.6 | 0.01 | 0.16 | 0.03 | 92 | 1028.4 |
| 20260506165529 | 35 | 255 | 0.9 | 2.6 | 0.01 | 0.16 | 0.03 | 92 | 1028.3 |
| 20260506165038 | 35 | 102 | 1.7 | 2.6 | 0.01 | 0.16 | 0.03 | 92 | 1028.2 |
| 20260506164531 | 35 | 258 | 0.9 | 1.7 | 0.01 | 0.16 | 0.03 | 92 | 1027.4 |
| 20260506164044 | 35 | 254 | 0.0 | 1.7 | 0.01 | 0.16 | 0.03 | 92 | 1027.3 |
| 20260506163538 | 34 | 241 | 0.0 | 1.7 | 0.01 | 0.16 | 0.03 | 92 | 1027.1 |
| 20260506163026 | 34 | 268 | 0.0 | 1.7 | 0.01 | 0.16 | 0.03 | 92 | 1027.1 |
| 20260506162538 | 34 | 275 | 0.0 | 2.6 | 0.01 | 0.16 | 0.03 | 92 | 1027.0 |
| 20260506162031 | 34 | 271 | 0.9 | 3.5 | 0.01 | 0.16 | 0.03 | 92 | 1026.9 |
| 20260506161538 | 34 | 38 | 0.9 | 3.5 | 0.01 | 0.16 | 0.03 | 92 | 1026.9 |
| 20260506161029 | 34 | 290 | 0.0 | 1.7 | 0.00 | 0.15 | 0.02 | 92 | 1026.9 |
| 20260506160543 | 34 | 252 | 0.0 | 1.7 | 0.00 | 0.16 | 0.02 | 92 | 1027.1 |
| 20260506160032 | 34 | 243 | 0.9 | 3.5 | 0.00 | 0.16 | 0.02 | 92 | 1027.0 |
| 20260506155604 | 34 | 243 | 1.7 | 3.5 | 0.00 | 0.16 | 0.02 | 92 | 1026.8 |
| 20260506155056 | 34 | 261 | 0.9 | 3.5 | 0.00 | 0.16 | 0.02 | 93 | 1026.9 |
| 20260506154525 | 34 | 269 | 0.0 | 3.5 | 0.00 | 0.16 | 0.02 | 93 | 1026.9 |
| 20260506154058 | 34 | 263 | 0.0 | 1.7 | 0.00 | 0.16 | 0.02 | 92 | 1027.0 |
| 20260506153530 | 34 | 266 | 0.9 | 3.5 | 0.01 | 0.16 | 0.02 | 93 | 1026.9 |
| 20260506153042 | 34 | 104 | 0.9 | 3.5 | 0.01 | 0.16 | 0.02 | 93 | 1026.9 |
| 20260506152535 | 34 | 157 | 0.0 | 1.7 | 0.01 | 0.16 | 0.02 | 93 | 1026.9 |
| 20260506152028 | 33 | 175 | 0.0 | 1.7 | 0.01 | 0.16 | 0.02 | 93 | 1026.9 |
| 20260506151533 | 33 | 110 | 0.0 | 0.9 | 0.01 | 0.16 | 0.02 | 93 | 1026.7 |
| 20260506151045 | 33 | 266 | 0.0 | 1.7 | 0.01 | 0.16 | 0.02 | 93 | 1026.6 |
| 20260506150540 | 33 | 235 | 0.9 | 1.7 | 0.01 | 0.17 | 0.02 | 93 | 1026.6 |
| 20260506150031 | 34 | 271 | 0.0 | 1.7 | 0.01 | 0.17 | 0.02 | 93 | 1026.5 |
| 20260506145602 | 34 | 87 | 0.0 | 0.9 | 0.01 | 0.17 | 0.02 | 93 | 1026.5 |
| 20260506145038 | 34 | 87 | 0.0 | 0.9 | 0.01 | 0.17 | 0.02 | 93 | 1026.4 |
| 20260506144532 | 33 | 87 | 0.0 | 0.0 | 0.01 | 0.17 | 0.02 | 93 | 1026.5 |
| 20260506144104 | 33 | 87 | 0.0 | 0.0 | 0.01 | 0.17 | 0.02 | 93 | 1026.4 |
| 20260506143537 | 33 | 87 | 0.0 | 0.0 | 0.00 | 0.16 | 0.01 | 93 | 1026.3 |
| 20260506143028 | 33 | 87 | 0.0 | 0.0 | 0.00 | 0.16 | 0.01 | 93 | 1026.3 |
| 20260506142541 | 33 | 87 | 0.0 | 0.9 | 0.00 | 0.16 | 0.01 | 93 | 1026.2 |
| 20260506142035 | 33 | 85 | 0.0 | 0.9 | 0.00 | 0.16 | 0.01 | 93 | 1026.1 |
| 20260506141526 | 33 | 84 | 0.0 | 0.9 | 0.00 | 0.16 | 0.01 | 93 | 1026.2 |
| 20260506141038 | 33 | 84 | 0.0 | 0.9 | 0.00 | 0.16 | 0.01 | 93 | 1026.1 |
| 20260506140531 | 33 | 84 | 0.0 | 0.9 | 0.00 | 0.18 | 0.01 | 93 | 1026.1 |
| 20260506140039 | 33 | 36 | 0.0 | 0.0 | 0.00 | 0.18 | 0.01 | 93 | 1026.0 |
| 20260506135530 | 33 | 36 | 0.0 | 0.9 | 0.00 | 0.18 | 0.01 | 93 | 1026.1 |
| 20260506135103 | 33 | 341 | 0.0 | 0.9 | 0.00 | 0.18 | 0.01 | 93 | 1026.1 |
| 20260506134529 | 33 | 335 | 0.0 | 0.9 | 0.00 | 0.18 | 0.01 | 93 | 1026.2 |
| 20260506134041 | 33 | 320 | 0.0 | 0.0 | 0.00 | 0.18 | 0.01 | 93 | 1026.0 |
| 20260506133533 | 33 | 320 | 0.0 | 0.0 | 0.00 | 0.18 | 0.01 | 93 | 1025.9 |
| 20260506133059 | 33 | 119 | 0.0 | 0.0 | 0.00 | 0.18 | 0.01 | 93 | 1026.6 |
| 20260506132533 | 33 | 119 | 0.0 | 0.0 | 0.00 | 0.18 | 0.01 | 93 | 1026.4 |
| 20260506132047 | 33 | 119 | 0.0 | 0.0 | 0.00 | 0.18 | 0.01 | 93 | 1026.5 |
| 20260506131534 | 33 | 119 | 0.0 | 0.0 | 0.00 | 0.18 | 0.01 | 93 | 1026.4 |
| 20260506131023 | 33 | 119 | 0.0 | 0.9 | 0.00 | 0.18 | 0.01 | 93 | 1026.5 |
| 20260506130539 | 33 | 119 | 0.0 | 0.9 | 0.00 | 0.20 | 0.01 | 92 | 1026.3 |
| 20260506130028 | 33 | 119 | 0.0 | 0.9 | 0.00 | 0.20 | 0.01 | 92 | 1026.1 |
| 20260506125539 | 33 | 119 | 0.0 | 0.9 | 0.00 | 0.20 | 0.01 | 92 | 1026.0 |
| 20260506125032 | 33 | 119 | 0.0 | 0.9 | 0.00 | 0.20 | 0.01 | 93 | 1025.8 |
| 20260506124543 | 33 | 119 | 0.0 | 1.7 | 0.00 | 0.20 | 0.01 | 93 | 1025.8 |
| 20260506124026 | 33 | 119 | 0.0 | 1.7 | 0.00 | 0.20 | 0.01 | 93 | 1025.5 |
| 20260506123540 | 33 | 119 | 0.0 | 0.9 | 0.00 | 0.20 | 0.01 | 93 | 1025.4 |
| 20260506123050 | 33 | 119 | 0.0 | 0.9 | 0.00 | 0.20 | 0.01 | 92 | 1025.4 |
| 20260506122540 | 33 | 119 | 0.0 | 0.9 | 0.00 | 0.20 | 0.01 | 92 | 1025.4 |
| 20260506122051 | 33 | 119 | 0.0 | 0.9 | 0.00 | 0.20 | 0.01 | 93 | 1025.5 |
| 20260506121538 | 33 | 119 | 0.0 | 0.9 | 0.00 | 0.20 | 0.01 | 93 | 1025.4 |
| 20260506121029 | 33 | 119 | 0.0 | 0.9 | 0.00 | 0.20 | 0.01 | 93 | 1025.4 |
| 20260506120540 | 33 | 119 | 0.0 | 0.0 | 0.00 | 0.22 | 0.01 | 93 | 1025.4 |
| 20260506120028 | 33 | 119 | 0.0 | 0.0 | 0.00 | 0.22 | 0.01 | 93 | 1025.3 |
| 20260506115536 | 33 | 119 | 0.0 | 0.0 | 0.00 | 0.22 | 0.01 | 93 | 1025.2 |
| 20260506115031 | 33 | 119 | 0.0 | 0.9 | 0.00 | 0.22 | 0.01 | 93 | 1025.1 |
| 20260506114541 | 33 | 119 | 0.0 | 0.9 | 0.00 | 0.22 | 0.01 | 93 | 1025.0 |
| 20260506114053 | 33 | 119 | 0.0 | 0.0 | 0.00 | 0.22 | 0.01 | 93 | 1025.0 |
| 20260506113545 | 33 | 119 | 0.0 | 0.0 | 0.00 | 0.22 | 0.01 | 93 | 1024.9 |
| 20260506113035 | 33 | 119 | 0.0 | 0.0 | 0.00 | 0.22 | 0.01 | 92 | 1025.0 |
| 20260506112548 | 33 | 119 | 0.0 | 0.0 | 0.00 | 0.22 | 0.01 | 93 | 1025.0 |
| 20260506112040 | 33 | 119 | 0.0 | 0.0 | 0.00 | 0.22 | 0.01 | 92 | 1024.9 |
| 20260506111530 | 33 | 119 | 0.0 | 0.0 | 0.00 | 0.22 | 0.01 | 92 | 1024.7 |
| 20260506111022 | 33 | 119 | 0.0 | 0.0 | 0.00 | 0.22 | 0.01 | 92 | 1024.6 |
| 20260506110541 | 33 | 119 | 0.0 | 0.0 | 0.00 | 0.22 | 0.01 | 92 | 1024.6 |
| 20260506110032 | 33 | 119 | 0.0 | 0.0 | 0.00 | 0.22 | 0.01 | 92 | 1024.6 |
| 20260506105542 | 33 | 119 | 0.0 | 0.0 | 0.00 | 0.22 | 0.01 | 92 | 1024.7 |
| 20260506105057 | 33 | 119 | 0.0 | 0.0 | 0.00 | 0.22 | 0.01 | 92 | 1024.7 |
| 20260506104544 | 33 | 119 | 0.0 | 0.0 | 0.00 | 0.22 | 0.01 | 92 | 1024.7 |
| 20260506104036 | 33 | 119 | 0.0 | 0.0 | 0.00 | 0.22 | 0.01 | 92 | 1024.5 |
| 20260506103530 | 33 | 119 | 0.0 | 0.0 | 0.00 | 0.22 | 0.01 | 92 | 1024.6 |
| 20260506103041 | 33 | 119 | 0.0 | 1.7 | 0.00 | 0.22 | 0.01 | 92 | 1024.6 |
| 20260506102534 | 33 | 119 | 0.0 | 1.7 | 0.00 | 0.22 | 0.01 | 92 | 1024.7 |
| 20260506102034 | 33 | 119 | 0.0 | 0.9 | 0.00 | 0.22 | 0.01 | 92 | 1024.8 |
| 20260506101539 | 33 | 119 | 0.0 | 0.0 | 0.00 | 0.22 | 0.01 | 93 | 1024.7 |
| 20260506101032 | 33 | 119 | 0.0 | 0.0 | 0.00 | 0.22 | 0.01 | 93 | 1024.8 |
| 20260506100526 | 33 | 119 | 0.0 | 0.0 | 0.00 | 0.22 | 0.01 | 93 | 1024.8 |
| 20260506100035 | 33 | 119 | 0.0 | 0.9 | 0.00 | 0.22 | 0.01 | 93 | 1024.7 |
| 20260506095525 | 33 | 119 | 0.0 | 0.9 | 0.00 | 0.22 | 0.01 | 93 | 1024.6 |
| 20260506095035 | 33 | 121 | 0.0 | 0.9 | 0.00 | 0.22 | 0.01 | 92 | 1024.7 |
| 20260506094526 | 33 | 121 | 0.0 | 0.9 | 0.00 | 0.22 | 0.01 | 93 | 1024.7 |
| 20260506094055 | 33 | 121 | 0.0 | 0.0 | 0.00 | 0.22 | 0.01 | 92 | 1024.5 |
| 20260506093527 | 33 | 121 | 0.0 | 0.9 | 0.00 | 0.22 | 0.01 | 92 | 1024.4 |
| 20260506093054 | 33 | 121 | 0.0 | 0.9 | 0.00 | 0.22 | 0.01 | 92 | 1024.4 |
| 20260506092544 | 33 | 120 | 0.0 | 0.9 | 0.00 | 0.22 | 0.01 | 92 | 1024.3 |
| 20260506092038 | 33 | 118 | 0.0 | 0.0 | 0.00 | 0.22 | 0.01 | 92 | 1024.2 |
| 20260506091549 | 34 | 118 | 0.0 | 0.0 | 0.00 | 0.22 | 0.01 | 92 | 1024.2 |
| 20260506091039 | 33 | 118 | 0.0 | 0.9 | 0.00 | 0.22 | 0.01 | 92 | 1024.1 |
| 20260506090532 | 34 | 119 | 0.0 | 0.9 | 0.00 | 0.22 | 0.01 | 92 | 1024.0 |
| 20260506090025 | 34 | 119 | 0.0 | 0.9 | 0.00 | 0.22 | 0.01 | 92 | 1024.8 |
| 20260506085537 | 34 | 119 | 0.0 | 0.9 | 0.00 | 0.22 | 0.01 | 92 | 1024.8 |
| 20260506085029 | 34 | 123 | 0.0 | 0.0 | 0.00 | 0.22 | 0.01 | 93 | 1024.7 |
| 20260506084537 | 34 | 123 | 0.0 | 0.9 | 0.00 | 0.22 | 0.01 | 93 | 1024.7 |
| 20260506084030 | 34 | 123 | 0.0 | 0.9 | 0.00 | 0.22 | 0.01 | 93 | 1024.8 |
| 20260506083530 | 34 | 123 | 0.0 | 0.9 | 0.00 | 0.22 | 0.01 | 93 | 1024.7 |
| 20260506083040 | 34 | 123 | 0.0 | 0.9 | 0.00 | 0.22 | 0.01 | 93 | 1024.7 |
| 20260506082529 | 34 | 123 | 0.0 | 0.9 | 0.00 | 0.22 | 0.01 | 93 | 1024.8 |
| 20260506082044 | 34 | 107 | 0.0 | 0.9 | 0.00 | 0.22 | 0.01 | 93 | 1024.9 |
| 20260506081531 | 34 | 169 | 0.0 | 0.9 | 0.01 | 0.22 | 0.01 | 93 | 1024.9 |
| 20260506081021 | 34 | 230 | 0.0 | 0.9 | 0.01 | 0.22 | 0.01 | 93 | 1025.0 |
| 20260506080559 | 34 | 189 | 0.0 | 0.9 | 0.01 | 0.22 | 0.01 | 92 | 1025.0 |
| 20260506073527 | 34 | 266 | 0.0 | 0.9 | 0.01 | 0.22 | 0.01 | 92 | 1024.7 |
| 20260506073037 | 34 | 266 | 0.0 | 0.0 | 0.01 | 0.22 | 0.01 | 92 | 1024.7 |
| 20260506072527 | 34 | 266 | 0.0 | 0.0 | 0.01 | 0.22 | 0.01 | 92 | 1024.6 |
| 20260506072036 | 34 | 267 | 0.0 | 1.7 | 0.01 | 0.22 | 0.01 | 92 | 1024.6 |
| 20260506071546 | 34 | 267 | 0.0 | 1.7 | 0.00 | 0.21 | 0.00 | 92 | 1024.7 |
| 20260506071035 | 34 | 278 | 0.0 | 0.9 | 0.00 | 0.21 | 0.00 | 92 | 1024.6 |
| 20260506070528 | 34 | 278 | 0.0 | 0.9 | 0.00 | 0.21 | 0.00 | 92 | 1024.5 |
| 20260506062034 | 34 | 13 | 0.0 | 0.9 | 0.00 | 0.21 | 0.00 | 92 | 1024.1 |
| 20260506061542 | 34 | 53 | 0.0 | 0.9 | 0.00 | 0.21 | 0.00 | 92 | 1023.8 |
| 20260506061033 | 34 | 84 | 0.0 | 0.0 | 0.00 | 0.21 | 0.00 | 92 | 1023.7 |
| 20260506060604 | 34 | 84 | 0.0 | 0.9 | 0.00 | 0.21 | 0.00 | 92 | 1023.4 |
| 20260506060109 | 34 | 84 | 0.0 | 0.9 | 0.01 | 0.21 | 0.21 | 92 | 1023.4 |
| 20260506051032 | 34 | 239 | 0.0 | 0.9 | 0.01 | 0.21 | 0.21 | 92 | 1024.2 |
| 20260506050606 | 34 | 173 | 0.0 | 0.9 | 0.01 | 0.23 | 0.21 | 92 | 1024.2 |
| 20260506045037 | 34 | 179 | 0.0 | 0.9 | 0.00 | 0.22 | 0.20 | 92 | 1024.0 |
| 20260506044550 | 34 | 179 | 0.0 | 0.9 | 0.00 | 0.22 | 0.20 | 92 | 1024.0 |
| 20260506044044 | 34 | 257 | 0.0 | 0.0 | 0.00 | 0.22 | 0.20 | 92 | 1024.0 |
| 20260506043539 | 34 | 257 | 0.0 | 0.9 | 0.00 | 0.22 | 0.20 | 92 | 1024.0 |
| 20260506043034 | 34 | 262 | 0.0 | 0.9 | 0.00 | 0.22 | 0.20 | 92 | 1024.0 |
| 20260506042527 | 34 | 262 | 0.0 | 0.9 | 0.00 | 0.22 | 0.20 | 92 | 1024.1 |
| 20260506042040 | 34 | 262 | 0.0 | 0.0 | 0.00 | 0.22 | 0.20 | 92 | 1024.0 |
| 20260506041529 | 34 | 262 | 0.0 | 0.0 | 0.00 | 0.22 | 0.20 | 92 | 1023.9 |
| 20260506041042 | 34 | 262 | 0.0 | 0.0 | 0.00 | 0.22 | 0.20 | 92 | 1024.0 |
| 20260506040557 | 34 | 262 | 0.0 | 0.0 | 0.00 | 0.28 | 0.20 | 92 | 1023.8 |
| 20260506040046 | 34 | 262 | 0.0 | 0.0 | 0.00 | 0.28 | 0.20 | 92 | 1023.7 |
| 20260506035537 | 34 | 262 | 0.0 | 0.0 | 0.00 | 0.28 | 0.20 | 92 | 1023.8 |
| 20260506035050 | 34 | 270 | 0.0 | 0.0 | 0.00 | 0.28 | 0.20 | 92 | 1023.7 |
| 20260506034539 | 34 | 272 | 0.0 | 1.7 | 0.01 | 0.28 | 0.20 | 92 | 1023.6 |
| 20260506034051 | 34 | 272 | 0.0 | 1.7 | 0.01 | 0.28 | 0.20 | 92 | 1023.5 |
| 20260506033602 | 34 | 287 | 0.0 | 0.9 | 0.01 | 0.28 | 0.20 | 92 | 1023.4 |
| 20260506033055 | 34 | 250 | 0.0 | 0.9 | 0.01 | 0.28 | 0.20 | 92 | 1023.4 |
| 20260506032528 | 34 | 250 | 0.0 | 1.7 | 0.01 | 0.28 | 0.20 | 92 | 1023.2 |
| 20260506032042 | 34 | 233 | 0.0 | 1.7 | 0.01 | 0.28 | 0.20 | 92 | 1023.1 |
| 20260506031531 | 34 | 327 | 0.0 | 0.9 | 0.01 | 0.28 | 0.20 | 92 | 1022.9 |
| 20260506031042 | 34 | 327 | 0.0 | 0.9 | 0.01 | 0.28 | 0.20 | 92 | 1022.7 |
| 20260506030611 | 34 | 327 | 0.0 | 0.9 | 0.01 | 0.28 | 0.20 | 92 | 1022.8 |
| 20260506030029 | 34 | 281 | 0.0 | 1.7 | 0.01 | 0.28 | 0.20 | 92 | 1022.6 |
| 20260506025559 | 34 | 156 | 0.9 | 1.7 | 0.01 | 0.28 | 0.20 | 92 | 1022.5 |
| 20260506025052 | 34 | 241 | 0.0 | 0.9 | 0.01 | 0.28 | 0.20 | 92 | 1022.3 |
| 20260506024523 | 34 | 241 | 0.0 | 0.9 | 0.00 | 0.27 | 0.19 | 92 | 1022.3 |
| 20260506024036 | 34 | 241 | 0.0 | 0.9 | 0.00 | 0.27 | 0.19 | 92 | 1022.2 |
| 20260506023530 | 34 | 241 | 0.0 | 0.9 | 0.00 | 0.27 | 0.19 | 92 | 1022.2 |
| 20260506023041 | 34 | 209 | 0.0 | 0.9 | 0.00 | 0.27 | 0.19 | 92 | 1022.2 |
| 20260506022533 | 34 | 210 | 0.0 | 0.9 | 0.00 | 0.27 | 0.19 | 92 | 1022.9 |
| 20260506022044 | 34 | 210 | 0.0 | 0.9 | 0.00 | 0.27 | 0.19 | 92 | 1022.7 |
| 20260506021552 | 34 | 252 | 0.0 | 0.0 | 0.00 | 0.27 | 0.19 | 92 | 1022.5 |
| 20260506021041 | 34 | 252 | 0.0 | 0.0 | 0.00 | 0.27 | 0.19 | 92 | 1022.3 |
| 20260506020535 | 34 | 252 | 0.0 | 0.0 | 0.01 | 0.28 | 0.19 | 92 | 1022.3 |
| 20260506020026 | 34 | 252 | 0.0 | 0.0 | 0.01 | 0.28 | 0.19 | 91 | 1022.3 |
| 20260506015558 | 34 | 252 | 0.0 | 0.0 | 0.01 | 0.28 | 0.19 | 91 | 1022.4 |
| 20260506015030 | 34 | 252 | 0.0 | 0.0 | 0.01 | 0.28 | 0.19 | 91 | 1022.2 |
| 20260506014534 | 34 | 254 | 0.0 | 0.0 | 0.01 | 0.28 | 0.19 | 91 | 1021.9 |
| 20260506014042 | 34 | 278 | 0.0 | 0.0 | 0.01 | 0.28 | 0.19 | 91 | 1022.0 |
| 20260506013554 | 34 | 306 | 0.0 | 0.0 | 0.01 | 0.28 | 0.19 | 91 | 1022.0 |
| 20260506013023 | 34 | 306 | 0.0 | 0.0 | 0.01 | 0.28 | 0.19 | 91 | 1021.9 |
| 20260506012537 | 34 | 306 | 0.0 | 0.9 | 0.01 | 0.28 | 0.19 | 91 | 1021.9 |
| 20260506012028 | 34 | 307 | 0.0 | 0.9 | 0.01 | 0.28 | 0.19 | 91 | 1021.7 |
| 20260506011538 | 34 | 274 | 0.0 | 0.0 | 0.01 | 0.28 | 0.19 | 91 | 1021.8 |
| 20260506011029 | 34 | 261 | 0.0 | 0.0 | 0.01 | 0.28 | 0.19 | 91 | 1021.6 |
| 20260506010540 | 34 | 268 | 0.0 | 1.7 | 0.00 | 0.28 | 0.18 | 91 | 1021.4 |
| 20260506010030 | 34 | 266 | 0.0 | 1.7 | 0.00 | 0.28 | 0.18 | 91 | 1021.3 |
| 20260506005541 | 34 | 239 | 0.9 | 1.7 | 0.00 | 0.28 | 0.18 | 91 | 1021.4 |
| 20260506005034 | 34 | 286 | 0.0 | 1.7 | 0.00 | 0.28 | 0.18 | 91 | 1021.5 |
| 20260506004542 | 34 | 246 | 0.0 | 2.6 | 0.00 | 0.28 | 0.18 | 91 | 1021.4 |
| 20260506004035 | 34 | 218 | 0.0 | 2.6 | 0.00 | 0.28 | 0.18 | 91 | 1021.3 |
| 20260506003546 | 34 | 272 | 0.0 | 2.6 | 0.00 | 0.28 | 0.18 | 91 | 1021.2 |
| 20260506003057 | 34 | 208 | 0.0 | 1.7 | 0.00 | 0.28 | 0.18 | 91 | 1021.1 |
| 20260506002529 | 34 | 147 | 0.0 | 3.5 | 0.00 | 0.28 | 0.18 | 91 | 1021.0 |
| 20260506002026 | 34 | 270 | 0.9 | 3.5 | 0.00 | 0.28 | 0.18 | 90 | 1020.9 |
| 20260506001540 | 34 | 268 | 0.0 | 1.7 | 0.00 | 0.28 | 0.18 | 91 | 1020.9 |
| 20260506001032 | 34 | 268 | 0.0 | 2.6 | 0.01 | 0.28 | 0.18 | 90 | 1021.5 |
| 20260506000602 | 34 | 290 | 1.7 | 2.6 | 0.01 | 0.28 | 0.18 | 90 | 1021.4 |
| 20260506000030 | 35 | 223 | 0.9 | 4.3 | 0.02 | 0.28 | 0.18 | 90 | 1021.3 |
| 20260505235543 | 35 | 110 | 1.7 | 4.3 | 0.02 | 0.28 | 0.18 | 90 | 1021.2 |
| 20260505235036 | 35 | 291 | 0.9 | 2.6 | 0.02 | 0.28 | 0.18 | 90 | 1021.1 |
| 20260505234526 | 35 | 253 | 0.9 | 3.5 | 0.03 | 0.28 | 0.18 | 90 | 1021.0 |
| 20260505234037 | 35 | 238 | 0.9 | 3.5 | 0.04 | 0.28 | 0.18 | 90 | 1020.9 |
| 20260505233532 | 35 | 139 | 0.0 | 3.5 | 0.04 | 0.28 | 0.18 | 90 | 1021.0 |
| 20260505233042 | 35 | 245 | 1.7 | 3.5 | 0.05 | 0.28 | 0.18 | 90 | 1020.9 |
| 20260505232555 | 35 | 233 | 0.0 | 4.3 | 0.06 | 0.28 | 0.18 | 89 | 1020.9 |
| 20260505232047 | 36 | 27 | 0.0 | 4.3 | 0.06 | 0.28 | 0.18 | 89 | 1020.6 |
| 20260505231528 | 36 | 269 | 0.9 | 2.6 | 0.07 | 0.28 | 0.18 | 89 | 1020.4 |
| 20260505231039 | 36 | 240 | 0.9 | 5.2 | 0.07 | 0.28 | 0.18 | 89 | 1020.3 |
| 20260505230533 | 36 | 117 | 0.9 | 5.2 | 0.06 | 0.27 | 0.17 | 88 | 1020.0 |
| 20260505230043 | 36 | 239 | 0.9 | 3.5 | 0.06 | 0.26 | 0.16 | 88 | 1019.9 |
| 20260505225536 | 37 | 297 | 0.9 | 4.3 | 0.06 | 0.26 | 0.16 | 88 | 1020.2 |
| 20260505225033 | 37 | 263 | 0.0 | 4.3 | 0.06 | 0.26 | 0.16 | 88 | 1021.1 |
| 20260505224544 | 38 | 298 | 1.7 | 3.5 | 0.05 | 0.25 | 0.15 | 88 | 1021.0 |
| 20260505224036 | 38 | 281 | 1.7 | 3.5 | 0.04 | 0.24 | 0.14 | 87 | 1020.6 |
| 20260505223531 | 39 | 237 | 1.7 | 6.1 | 0.05 | 0.24 | 0.14 | 87 | 1020.4 |
| 20260505223041 | 39 | 266 | 1.7 | 6.1 | 0.04 | 0.23 | 0.13 | 88 | 1020.1 |
| 20260505222549 | 40 | 270 | 1.7 | 5.2 | 0.03 | 0.22 | 0.12 | 88 | 1020.0 |
| 20260505222104 | 41 | 228 | 1.7 | 4.3 | 0.03 | 0.22 | 0.12 | 88 | 1019.8 |
| 20260505221555 | 41 | 109 | 1.7 | 4.3 | 0.02 | 0.21 | 0.11 | 89 | 1019.7 |
| 20260505221027 | 41 | 147 | 0.9 | 3.5 | 0.02 | 0.21 | 0.11 | 88 | 1019.6 |
| 20260505220540 | 41 | 99 | 0.9 | 3.5 | 0.02 | 0.21 | 0.11 | 88 | 1019.5 |
| 20260505220050 | 41 | 238 | 0.0 | 3.5 | 0.01 | 0.20 | 0.10 | 88 | 1019.2 |
| 20260505215541 | 41 | 281 | 0.9 | 2.6 | 0.01 | 0.20 | 0.10 | 88 | 1019.2 |
| 20260505215035 | 41 | 239 | 0.0 | 1.7 | 0.01 | 0.20 | 0.10 | 87 | 1019.4 |
| 20260505214545 | 41 | 175 | 0.9 | 1.7 | 0.01 | 0.20 | 0.10 | 87 | 1019.4 |
| 20260505214034 | 42 | 270 | 0.9 | 3.5 | 0.01 | 0.20 | 0.10 | 87 | 1019.4 |
| 20260505213552 | 42 | 126 | 1.7 | 3.5 | 0.01 | 0.20 | 0.10 | 86 | 1019.5 |
| 20260505213031 | 42 | 69 | 0.9 | 3.5 | 0.00 | 0.19 | 0.09 | 86 | 1019.5 |
| 20260505212558 | 42 | 77 | 0.9 | 4.3 | 0.00 | 0.19 | 0.09 | 86 | 1019.5 |
| 20260505212032 | 43 | 121 | 1.7 | 4.3 | 0.00 | 0.19 | 0.09 | 86 | 1019.4 |
| 20260505211540 | 43 | 156 | 0.9 | 4.3 | 0.00 | 0.19 | 0.09 | 86 | 1019.4 |
| 20260505211055 | 43 | 292 | 0.0 | 1.7 | 0.00 | 0.19 | 0.09 | 86 | 1019.3 |
| 20260505210528 | 42 | 292 | 0.0 | 3.5 | 0.00 | 0.19 | 0.09 | 86 | 1019.3 |
| 20260505210040 | 42 | 235 | 0.0 | 3.5 | 0.00 | 0.19 | 0.09 | 86 | 1020.1 |
| 20260505205531 | 42 | 117 | 0.0 | 1.7 | 0.00 | 0.19 | 0.09 | 87 | 1020.2 |
| 20260505205043 | 42 | 125 | 0.9 | 1.7 | 0.00 | 0.19 | 0.09 | 88 | 1020.4 |
| 20260505204552 | 42 | 306 | 0.0 | 1.7 | 0.00 | 0.19 | 0.09 | 88 | 1020.5 |
| 20260505204041 | 42 | 218 | 0.0 | 3.5 | 0.00 | 0.19 | 0.09 | 89 | 1020.5 |
| 20260505203536 | 42 | 195 | 0.9 | 3.5 | 0.01 | 0.19 | 0.09 | 89 | 1020.8 |
| 20260505203025 | 42 | 126 | 0.0 | 1.7 | 0.01 | 0.19 | 0.09 | 89 | 1020.9 |
| 20260505202536 | 42 | 164 | 0.9 | 3.5 | 0.01 | 0.19 | 0.09 | 89 | 1020.9 |
| 20260505202033 | 42 | 112 | 0.9 | 3.5 | 0.01 | 0.19 | 0.09 | 89 | 1020.9 |
| 20260505201542 | 41 | 231 | 0.9 | 4.3 | 0.01 | 0.19 | 0.09 | 88 | 1020.9 |
| 20260505201053 | 42 | 108 | 1.7 | 4.3 | 0.01 | 0.19 | 0.09 | 89 | 1020.7 |
| 20260505200527 | 42 | 96 | 1.7 | 3.5 | 0.01 | 0.19 | 0.09 | 87 | 1020.7 |
| 20260505200036 | 42 | 59 | 0.9 | 2.6 | 0.01 | 0.19 | 0.09 | 88 | 1020.7 |
| 20260505195527 | 42 | 100 | 0.9 | 1.7 | 0.01 | 0.19 | 0.09 | 89 | 1020.8 |
| 20260505195041 | 41 | 109 | 0.0 | 1.7 | 0.01 | 0.19 | 0.09 | 88 | 1020.8 |
| 20260505194530 | 41 | 119 | 0.0 | 1.7 | 0.01 | 0.19 | 0.09 | 88 | 1020.7 |
| 20260505194057 | 42 | 226 | 0.0 | 1.7 | 0.01 | 0.19 | 0.09 | 88 | 1020.7 |
| 20260505193527 | 42 | 102 | 0.0 | 1.7 | 0.00 | 0.18 | 0.08 | 88 | 1020.7 |
| 20260505193036 | 42 | 105 | 0.0 | 1.7 | 0.00 | 0.18 | 0.08 | 89 | 1020.6 |
| 20260505192528 | 41 | 104 | 0.0 | 1.7 | 0.00 | 0.18 | 0.08 | 89 | 1020.5 |
| 20260505192041 | 41 | 87 | 0.0 | 1.7 | 0.00 | 0.18 | 0.08 | 89 | 1020.6 |
| 20260505191552 | 41 | 139 | 0.9 | 1.7 | 0.00 | 0.18 | 0.08 | 90 | 1020.7 |
| 20260505191043 | 41 | 158 | 0.9 | 3.5 | 0.00 | 0.18 | 0.08 | 90 | 1020.7 |
| 20260505190540 | 41 | 99 | 0.0 | 3.5 | 0.00 | 0.18 | 0.08 | 90 | 1020.6 |
| 20260505190033 | 41 | 77 | 0.0 | 3.5 | 0.00 | 0.18 | 0.08 | 90 | 1020.6 |
| 20260505185528 | 41 | 131 | 0.0 | 1.7 | 0.00 | 0.18 | 0.08 | 90 | 1020.7 |
| 20260505185043 | 41 | 133 | 0.0 | 1.7 | 0.00 | 0.18 | 0.08 | 90 | 1020.7 |
| 20260505184536 | 41 | 206 | 0.0 | 1.7 | 0.00 | 0.18 | 0.08 | 90 | 1020.8 |
| 20260505184030 | 40 | 110 | 0.9 | 1.7 | 0.00 | 0.18 | 0.08 | 90 | 1021.6 |
| 20260505183545 | 40 | 112 | 0.9 | 1.7 | 0.00 | 0.18 | 0.08 | 90 | 1021.7 |
| 20260505183038 | 40 | 187 | 0.0 | 4.3 | 0.00 | 0.18 | 0.08 | 90 | 1021.7 |
| 20260505182553 | 40 | 112 | 1.7 | 4.3 | 0.00 | 0.18 | 0.08 | 90 | 1021.9 |
| 20260505182028 | 40 | 98 | 2.6 | 4.3 | 0.00 | 0.18 | 0.08 | 90 | 1021.9 |
| 20260505181540 | 40 | 297 | 0.9 | 3.5 | 0.00 | 0.18 | 0.08 | 91 | 1021.7 |
| 20260505181055 | 40 | 102 | 0.9 | 3.5 | 0.00 | 0.18 | 0.08 | 91 | 1021.7 |
| 20260505180532 | 40 | 124 | 0.0 | 4.3 | 0.00 | 0.18 | 0.08 | 91 | 1021.8 |
| 20260505180040 | 40 | 89 | 0.9 | 4.3 | 0.00 | 0.18 | 0.08 | 91 | 1021.9 |
| 20260505175537 | 40 | 258 | 0.0 | 2.6 | 0.00 | 0.18 | 0.08 | 90 | 1021.9 |
| 20260505175034 | 40 | 242 | 0.0 | 2.6 | 0.00 | 0.18 | 0.08 | 91 | 1022.0 |
| 20260505174526 | 40 | 258 | 0.9 | 2.6 | 0.00 | 0.18 | 0.08 | 91 | 1022.0 |
| 20260505174041 | 40 | 202 | 0.0 | 1.7 | 0.00 | 0.18 | 0.08 | 91 | 1021.9 |
| 20260505173539 | 40 | 210 | 0.0 | 1.7 | 0.00 | 0.18 | 0.08 | 91 | 1021.9 |
| 20260505173053 | 40 | 272 | 0.0 | 2.6 | 0.00 | 0.18 | 0.08 | 91 | 1021.9 |
| 20260505172526 | 40 | 254 | 0.9 | 2.6 | 0.00 | 0.18 | 0.08 | 91 | 1022.0 |
| 20260505172042 | 40 | 96 | 0.0 | 1.7 | 0.00 | 0.18 | 0.08 | 91 | 1021.9 |
| 20260505171534 | 40 | 103 | 0.0 | 1.7 | 0.00 | 0.18 | 0.08 | 91 | 1021.9 |